MEV-1

Last updated on Tue Oct 15 2024 00:02:41 GMT+0000 (Coordinated Universal Time)

1 44625U 19067B 24288.33065475 -.00000203 00000+0 00000+0 0 9995 2 44625 0.0541 80.6278 0001325 192.7981 201.5218 1.00273117 18215
UTC large
Height (km)
Speed (km/s)
/
Latitude / Longitude
Inclination (degrees)
Orbital Period (minutes)
Azimuth
Elevation
Range (km)
Doppler Factor

Next 0 passes for location: London (51.5072 / 0.1276)

Sorry there are no passes over London.